TimeCST,TemperatureF,Dew PointF,Humidity,Sea Level PressureIn,VisibilityMPH,Wind Direction,Wind SpeedMPH,Gust SpeedMPH,PrecipitationIn,Events,Conditions,WindDirDegrees,DateUTC
12:52 AM,36.0,28.0,73,29.63,10.0,SSW,5.8,-,N/A,,Clear,210,2012-01-11 06:52:00
1:52 AM,33.1,28.0,82,29.62,10.0,South,9.2,-,N/A,,Clear,180,2012-01-11 07:52:00
2:52 AM,30.9,26.1,82,29.62,10.0,SW,4.6,-,N/A,,Clear,220,2012-01-11 08:52:00
3:52 AM,28.9,25.0,85,29.61,10.0,South,4.6,-,N/A,,Clear,190,2012-01-11 09:52:00
4:52 AM,27.0,24.1,89,29.62,10.0,West,3.5,-,N/A,,Clear,280,2012-01-11 10:52:00
5:52 AM,30.9,27.0,85,29.63,10.0,NNW,10.4,-,N/A,,Clear,330,2012-01-11 11:52:00
6:52 AM,32.0,28.0,85,29.67,10.0,NNW,16.1,-,N/A,,Clear,340,2012-01-11 12:52:00
7:32 AM,33.8,30.2,87,29.66,10.0,NNW,20.7,-,N/A,,Scattered Clouds,340,2012-01-11 13:32:00
7:40 AM,33.8,32.0,93,29.66,10.0,NNW,21.9,28.8,N/A,,Mostly Cloudy,340,2012-01-11 13:40:00
7:52 AM,35.1,33.1,92,29.70,10.0,NNW,23.0,31.1,N/A,,Overcast,340,2012-01-11 13:52:00
8:52 AM,34.0,30.9,89,29.75,10.0,NNW,27.6,38.0,N/A,,Overcast,340,2012-01-11 14:52:00
9:52 AM,34.0,30.0,85,29.76,10.0,NNW,29.9,42.6,N/A,,Overcast,340,2012-01-11 15:52:00
10:52 AM,32.0,27.0,82,29.79,10.0,NNW,35.7,43.7,N/A,,Overcast,340,2012-01-11 16:52:00
11:32 AM,30.2,24.8,80,29.76,10.0,NNW,35.7,47.2,N/A,,Overcast,330,2012-01-11 17:32:00
11:52 AM,28.0,21.9,78,29.81,10.0,NNW,34.5,43.7,N/A,,Overcast,340,2012-01-11 17:52:00
12:52 PM,25.0,19.0,78,29.83,7.0,NNW,34.5,44.9,0.00,Snow,Light Snow,330,2012-01-11 18:52:00
1:02 PM,24.8,17.6,74,29.79,8.0,NNW,36.8,48.3,0.00,Snow,Light Snow,340,2012-01-11 19:02:00
1:16 PM,24.8,17.6,74,29.80,2.0,NNW,31.1,46.0,0.00,Snow,Light Snow,330,2012-01-11 19:16:00
1:18 PM,24.8,17.6,74,29.80,1.5,NNW,34.5,46.0,0.00,Snow,Light Snow,330,2012-01-11 19:18:00
1:30 PM,23.0,17.6,80,29.80,3.0,NNW,31.1,46.0,0.00,Snow,Light Snow,340,2012-01-11 19:30:00
1:52 PM,23.0,17.1,78,29.86,9.0,NNW,33.4,44.9,0.00,,Overcast,340,2012-01-11 19:52:00
2:37 PM,23.0,14.0,68,29.83,10.0,NNW,36.8,47.2,N/A,,Overcast,330,2012-01-11 20:37:00
2:52 PM,21.9,12.9,68,29.88,10.0,NNW,35.7,46.0,N/A,,Overcast,340,2012-01-11 20:52:00
3:39 PM,21.2,12.2,68,29.84,10.0,NNW,32.2,41.4,0.00,Snow,Light Snow,340,2012-01-11 21:39:00
3:52 PM,21.0,12.0,68,29.91,9.0,NNW,33.4,47.2,0.00,,Mostly Cloudy,340,2012-01-11 21:52:00
4:17 PM,19.4,10.4,68,29.86,9.0,NNW,32.2,42.6,0.00,,Mostly Cloudy,340,2012-01-11 22:17:00
4:25 PM,19.4,10.4,68,29.86,10.0,NNW,29.9,44.9,0.00,Snow,Light Snow,340,2012-01-11 22:25:00
4:52 PM,19.9,10.9,68,29.92,9.0,NNW,33.4,43.7,0.00,Snow,Light Snow,330,2012-01-11 22:52:00
5:52 PM,19.0,12.9,77,29.94,3.0,NNW,20.7,38.0,0.00,Snow,Light Snow,340,2012-01-11 23:52:00
6:52 PM,17.1,7.0,65,29.96,10.0,NNW,38.0,46.0,0.00,,Overcast,330,2012-01-12 00:52:00
7:52 PM,15.1,5.0,64,29.98,10.0,NNW,32.2,48.3,N/A,,Mostly Cloudy,340,2012-01-12 01:52:00
8:52 PM,14.0,3.9,64,29.97,10.0,NNW,29.9,41.4,N/A,,Overcast,340,2012-01-12 02:52:00
9:06 PM,14.0,5.0,67,29.91,10.0,NNW,23.0,36.8,N/A,,Overcast,340,2012-01-12 03:06:00
9:52 PM,14.0,5.0,67,29.96,10.0,NNW,26.5,38.0,N/A,,Overcast,330,2012-01-12 03:52:00
10:52 PM,14.0,6.1,71,29.96,10.0,NNW,28.8,35.7,N/A,,Overcast,340,2012-01-12 04:52:00
11:52 PM,14.0,6.1,71,29.94,10.0,NNW,24.2,29.9,N/A,,Overcast,340,2012-01-12 05:52:00